Weather History for CYXX - July, 2013

Change the Weather History Date:

Friday, July 19, 2013

  Actual Average Record
Temperature  
Mean Temperature 66 °F -  
Max Temperature 78 °F 74 °F 91 °F (2015)
Min Temperature 54 °F 52 °F 50 °F (2006)
Cooling Degree Days 1    
Growing Degree Days 16 (Base 50)    
Moisture  
Dew Point 59 °F    
Average Humidity 75    
Maximum Humidity 100    
Minimum Humidity 45    
Precipitation  
Precipitation 0.00 in 0.07 in - ()
Sea Level Pressure  
Sea Level Pressure 30.11 in    
Wind  
Wind Speed 4 mph ()    
Max Wind Speed 10 mph    
Max Gust Speed -    
Visibility 13.1 miles    
Events      
Averages and records for this station are not official NWS values.
T = Trace of Precipitation, MM = Missing Value Source: Averaged Metar Reports

Daily Weather History Graph

Daily Weather History Graph

Search for Another Location

Airport or City:

Trip Planner

Search our weather history database for the weather conditions in past years. The results will help you decide how hot, cold, wet, or windy it might be!

Date:

Astronomy

Jul. 19, 2013 Rise Set
Actual Time 5:26 AM PDT 9:04 PM PDT
Civil Twilight 4:46 AM PDT 9:44 PM PDT
Nautical Twilight 3:52 AM PDT 10:38 PM PDT
Astronomical Twilight 2:34 AM PDT 11:53 PM PDT
Moon 6:12 PM PDT (7/19) 2:14 AM PDT (7/19)
Length of Visible Light 16h 58m
Length of Day
15h 38m
Waxing Gibbous, 87% of the Moon is Illuminated
Jul 19
Waxing Gibbous
Jul 22
Full
Jul 29
Last Quarter
Aug 6
New
Aug 14
First Quarter

Hourly Weather History & Observations

Time (PDT) Temp. Dew Point Humidity Pressure Visibility Wind Dir Wind Speed Gust Speed Precip Events Conditions
12:00 AM 60.8 °F 55.4 °F 82% 30.14 in 10.0 mi WSW 4.6 mph - N/A   Clear
1:00 AM 60.8 °F 57.2 °F 88% 30.14 in 10.0 mi Calm Calm - N/A   Clear
2:00 AM 59.0 °F 55.4 °F 88% 30.14 in 10.0 mi Calm Calm - N/A   Clear
3:00 AM 59.0 °F 55.4 °F 88% 30.14 in 10.0 mi NW 2.3 mph - N/A   Clear
4:00 AM 57.2 °F 55.4 °F 94% 30.14 in 10.0 mi SW 2.3 mph - N/A   Clear
5:00 AM 56 °F 55 °F 94% 30.14 in 25 mi SW 3.5 mph - -  
5:00 AM 55.4 °F 55.4 °F 100% 30.14 in 25.0 mi SW 3.5 mph - N/A   Clear
6:00 AM 57.2 °F 55.4 °F 94% 30.15 in 30.0 mi SW 2.3 mph - N/A   Clear
7:00 AM 59.0 °F 55.4 °F 88% 30.16 in 30.0 mi WSW 4.6 mph - N/A   Clear
8:00 AM 60.8 °F 57.2 °F 88% 30.17 in 15.0 mi SW 5.8 mph - N/A   Partly Cloudy
9:00 AM 64.4 °F 59.0 °F 83% 30.17 in 15.0 mi WSW 2.3 mph - N/A   Partly Cloudy
10:00 AM 68.0 °F 59.0 °F 73% 30.16 in 15.0 mi WSW 5.8 mph - N/A   Partly Cloudy
11:00 AM 70 °F 61 °F 65% 30.15 in 19 mi SW 4.6 mph - -   Scattered Clouds
11:00 AM 69.8 °F 60.8 °F 73% 30.15 in 20.0 mi West 5.8 mph - N/A   Partly Cloudy
12:00 PM 71.6 °F 60.8 °F 69% 30.14 in 20.0 mi SW 9.2 mph - N/A   Partly Cloudy
1:00 PM 75.2 °F 60.8 °F 61% 30.13 in 30.0 mi South 10.4 mph - N/A   Partly Cloudy
2:00 PM 75.2 °F 60.8 °F 61% 30.11 in 30.0 mi SSW 9.2 mph - N/A   Partly Cloudy
3:00 PM 77.0 °F 62.6 °F 61% 30.09 in 30.0 mi SSW 9.2 mph - N/A   Partly Cloudy
4:00 PM 78.8 °F 62.6 °F 57% 30.08 in 30.0 mi WSW 10.4 mph - N/A   Partly Cloudy
5:00 PM 78 °F 60 °F 45% 30.06 in 28 mi SW 10.4 mph - -   Scattered Clouds
5:00 PM 77.0 °F 60.8 °F 57% 30.06 in 30.0 mi SW 8.1 mph - N/A   Partly Cloudy
6:00 PM 77.0 °F 60.8 °F 57% 30.05 in 30.0 mi SW 10.4 mph - N/A   Partly Cloudy
7:00 PM 75.2 °F 60.8 °F 61% 30.04 in 30.0 mi SW 8.1 mph - N/A   Partly Cloudy
8:00 PM 73.4 °F 60.8 °F 65% 30.04 in 30.0 mi SSW 9.2 mph - N/A   Clear
9:00 PM 68.0 °F 59.0 °F 73% 30.04 in 30.0 mi WSW 9.2 mph - N/A   Clear
10:00 PM 66.2 °F 59.0 °F 78% 30.05 in 10.0 mi WSW 3.5 mph - N/A   Clear
11:00 PM 62 °F 57 °F 79% 30.05 in 10 mi SW 4.6 mph - -  
11:00 PM 62.6 °F 57.2 °F 82% 30.05 in 10.0 mi SW 4.6 mph - N/A   Clear